Weather History for Elkins, WV

Change the Weather History Date:

Saturday, May 26, 2012

  Actual Average Record
Temperature  
Mean Temperature 72 °F 61 °F  
Max Temperature 87 °F 73 °F 90 °F (1991)
Min Temperature 57 °F 49 °F 31 °F (1930)
Degree Days  
Heating Degree Days 0 5  
Month to date heating degree days 81 212  
Since 1 July heating degree days 4707 5775  
Cooling Degree Days 7 1  
Month to date cooling degree days 31 13  
Year to date cooling degree days 31 16  
Growing Degree Days 22 (Base 50)    
Moisture  
Dew Point 60 °F    
Average Humidity 73    
Maximum Humidity 100    
Minimum Humidity 45    
Precipitation  
Precipitation 0.00 in 0.17 in 2.62 in (1990)
Month to date precipitation 5.19 4.29  
Year to date precipitation 16.92 18.38  
Snow  
Snow 0.00 in - - ()
Month to date snowfall 0.0  
Since 1 September snowfall 30.6  
Snow Depth 0.00 in    
Sea Level Pressure  
Sea Level Pressure 30.20 in    
Wind  
Wind Speed 2 mph (NNW)    
Max Wind Speed 10 mph    
Max Gust Speed 16 mph    
Visibility 5 miles    
Events      
T = Trace of Precipitation, MM = Missing Value Source: NWS Daily Summary

Daily Weather History Graph

Daily Weather History Graph

Search for Another Location

Airport:

Trip Planner

Search our weather history database for the weather conditions in past years. The results will help you decide how hot, cold, wet, or windy it might be!

Date:

Astronomy

May. 26, 2012 Rise Set
Actual Time 5:58 AM EDT 8:34 PM EDT
Civil Twilight 5:27 AM EDT 9:05 PM EDT
Nautical Twilight 4:49 AM EDT 9:44 PM EDT
Astronomical Twilight 4:05 AM EDT 10:27 PM EDT
Moon 10:57 AM EDT (5/26) 12:09 AM EDT (5/26)
Length of Visible Light 15h 38m
Length of Day
14h 36m
Waxing Crescent, 28% of the Moon is Illuminated
May 26
Waxing Crescent
May 28
First Quarter
Jun 4
Full
Jun 11
Last Quarter
Jun 19
New

Hourly Weather History & Observations

Time (EDT) Temp. Heat Index Dew Point Humidity Pressure Visibility Wind Dir Wind Speed Gust Speed Precip Events Conditions
12:46 AM 60.8 °F - 57.2 °F 88% 30.21 in 2.5 mi Calm Calm - N/A   Clear
12:51 AM 60.1 °F - 57.9 °F 93% 30.18 in 1.8 mi Calm Calm - N/A   Clear
1:06 AM 60.8 °F - 57.2 °F 88% 30.22 in 2.5 mi Calm Calm - N/A   Clear
1:32 AM 59.0 °F - 57.2 °F 94% 30.22 in 3.0 mi Calm Calm - N/A   Clear
1:49 AM 59.0 °F - 57.2 °F 94% 30.22 in 2.5 mi Calm Calm - N/A   Clear
1:51 AM 59.0 °F - 57.0 °F 93% 30.19 in 2.5 mi Calm Calm - N/A   Clear
2:14 AM 59.0 °F - 57.2 °F 94% 30.22 in 3.0 mi Calm Calm - N/A   Clear
2:22 AM 59.0 °F - 57.2 °F 94% 30.22 in 2.0 mi Calm Calm - N/A   Partly Cloudy
2:51 AM 57.9 °F - 57.0 °F 97% 30.19 in 2.5 mi Calm Calm - N/A   Clear
2:58 AM 59.0 °F - 57.2 °F 94% 30.21 in 3.0 mi Calm Calm - N/A   Clear
3:13 AM 57.2 °F - 57.2 °F 100% 30.21 in 2.5 mi Calm Calm - N/A   Clear
3:25 AM 59.0 °F - 57.2 °F 94% 30.21 in 3.0 mi Calm Calm - N/A   Clear
3:33 AM 59.0 °F - 57.2 °F 94% 30.21 in 2.0 mi Calm Calm - N/A   Clear
3:48 AM 57.2 °F - 55.4 °F 94% 30.21 in 3.0 mi Calm Calm - N/A   Clear
3:51 AM 57.9 °F - 55.9 °F 93% 30.18 in 3.0 mi Calm Calm - N/A   Clear
4:15 AM 59.0 °F - 57.2 °F 94% 30.22 in 2.5 mi Calm Calm - N/A   Scattered Clouds
4:43 AM 57.2 °F - 57.2 °F 100% 30.22 in 1.8 mi Calm Calm - N/A   Partly Cloudy
4:51 AM 57.9 °F - 55.9 °F 93% 30.20 in 2.0 mi Calm Calm - N/A   Clear
5:11 AM 57.2 °F - 55.4 °F 94% 30.22 in 1.0 mi Calm Calm - N/A   Clear
5:22 AM 57.2 °F - 57.2 °F 100% 30.22 in 2.5 mi Calm Calm - N/A   Clear
5:51 AM 57.9 °F - 55.9 °F 93% 30.21 in 2.5 mi Calm Calm - N/A   Clear
6:12 AM 57.2 °F - 55.4 °F 94% 30.23 in 1.8 mi Calm Calm - N/A   Clear
6:22 AM 57.2 °F - 55.4 °F 94% 30.23 in 2.0 mi Calm Calm - N/A   Clear
6:33 AM 57.2 °F - 57.2 °F 100% 30.23 in 1.5 mi Calm Calm - N/A   Clear
6:46 AM 59.0 °F - 57.2 °F 94% 30.24 in 2.0 mi Calm Calm - N/A   Clear
6:51 AM 59.0 °F - 57.0 °F 93% 30.22 in 2.0 mi Calm Calm - N/A   Clear
7:31 AM 62.6 °F - 59.0 °F 88% 30.24 in 3.0 mi Calm Calm - N/A   Clear
7:51 AM 63.0 °F - 60.1 °F 90% 30.22 in 4.0 mi Calm Calm - N/A   Partly Cloudy
8:51 AM 66.0 °F - 61.0 °F 84% 30.24 in 5.0 mi Calm Calm - N/A   Haze
9:51 AM 73.9 °F - 63.0 °F 68% 30.23 in 8.0 mi Calm Calm - N/A   Scattered Clouds
10:51 AM 77.0 °F - 64.0 °F 64% 30.22 in 9.0 mi Calm Calm - N/A   Clear
11:51 AM 82.0 °F 83.8 °F 64.9 °F 56% 30.21 in 10.0 mi North 4.6 mph - N/A   Clear
12:51 PM 80.1 °F 81.7 °F 64.0 °F 58% 30.22 in 10.0 mi North 6.9 mph - N/A   Mostly Cloudy
1:51 PM 84.9 °F 87.1 °F 66.0 °F 53% 30.19 in 10.0 mi Variable 4.6 mph - N/A   Partly Cloudy
2:51 PM 84.9 °F 85.9 °F 63.0 °F 48% 30.17 in 10.0 mi North 4.6 mph - N/A   Partly Cloudy
3:51 PM 86.0 °F 86.8 °F 63.0 °F 46% 30.14 in 10.0 mi North 5.8 mph - N/A   Clear
4:51 PM 84.0 °F 84.9 °F 63.0 °F 49% 30.13 in 10.0 mi WNW 6.9 mph - N/A   Clear
5:51 PM 84.9 °F 85.9 °F 63.0 °F 48% 30.12 in 10.0 mi NW 6.9 mph - N/A   Clear
6:51 PM 82.9 °F 84.6 °F 64.9 °F 54% 30.14 in 10.0 mi WNW 4.6 mph - N/A   Partly Cloudy
7:51 PM 80.1 °F 82.1 °F 66.0 °F 62% 30.14 in 9.0 mi Calm Calm - N/A   Clear
8:51 PM 73.0 °F - 66.9 °F 81% 30.16 in 8.0 mi Calm Calm - N/A   Mostly Cloudy
9:51 PM 70.0 °F - 66.0 °F 87% 30.17 in 7.0 mi Calm Calm - N/A   Clear
10:51 PM 66.9 °F - 64.9 °F 93% 30.17 in 6.0 mi Calm Calm - N/A   Clear
11:51 PM 66.9 °F - 64.0 °F 90% 30.17 in 4.0 mi Calm Calm - N/A   Clear